When you browse on this site, cookies collect data to enhance your experience and personalize the content and advertising you see.
Visit our Privacy Policy to learn more. By continuing to use the site, you agree to this use of cookies and data.
  • In Sweden
  • List of Countries
  • For 7 days
  • Water Temperature
  • Weather Map
  • Weather Widgets
  • user-avatar
    Login

    Hourly Weather Mexico City

    Today, 29 March, Sunday

    Time Temperature Precipitation Wind Pressure Humidity
    00:00 +20°C° 0 mm 2 mps 585 mmHg 43%
    01:00 +20°C° 0 mm 2 mps 585 mmHg 46%
    02:00 +20°C° 0 mm 1 mps 584 mmHg 48%
    03:00 +20°C° 0 mm 1 mps 584 mmHg 52%
    04:00 +19°C° 0 mm 1 mps 584 mmHg 56%
    05:00 +19°C° 0 mm 1 mps 584 mmHg 59%
    06:00 +20°C° 0 mm 1 mps 585 mmHg 56%
    07:00 +21°C° 0 mm 1 mps 585 mmHg 53%
    08:00 +22°C° 0 mm 1 mps 586 mmHg 50%
    09:00 +23°C° 0 mm 1 mps 587 mmHg 42%
    10:00 +25°C° 0 mm 2 mps 587 mmHg 35%
    11:00 +27°C° 0 mm 2 mps 588 mmHg 27%
    12:00 +28°C° 0 mm 2 mps 587 mmHg 24%
    13:00 +29°C° 0 mm 3 mps 587 mmHg 22%
    14:00 +30°C° 0 mm 3 mps 587 mmHg 19%
    15:00 +29°C° 0 mm 3 mps 586 mmHg 22%
    16:00 +28°C° 0 mm 3 mps 586 mmHg 25%
    17:00 +27°C° 0 mm 3 mps 586 mmHg 27%
    18:00 +26°C° 0.1 mm 3 mps 586 mmHg 34%
    19:00 +24°C° 0.1 mm 2 mps 586 mmHg 41%
    20:00 +23°C° 0.1 mm 2 mps 586 mmHg 48%
    21:00 +21°C° 0.1 mm 2 mps 586 mmHg 53%
    22:00 +20°C° 0.1 mm 2 mps 586 mmHg 58%
    23:00 +19°C° 0.1 mm 2 mps 586 mmHg 63%

    Tomorrow, 30 March, Monday

    Time Temperature Precipitation Wind Pressure Humidity
    00:00 +20°C° 0 mm 1 mps 585 mmHg 64%
    01:00 +19°C° 0 mm 1 mps 585 mmHg 66%
    02:00 +19°C° 0 mm 1 mps 585 mmHg 67%
    03:00 +19°C° 0 mm 1 mps 585 mmHg 68%
    04:00 +18°C° 0 mm 1 mps 584 mmHg 68%
    05:00 +18°C° 0 mm 1 mps 584 mmHg 69%
    06:00 +20°C° 0 mm 1 mps 585 mmHg 62%
    07:00 +21°C° 0 mm 1 mps 586 mmHg 55%
    08:00 +20°C° 0 mm 0 mps 587 mmHg 48%
    09:00 +24°C° 0 mm 1 mps 587 mmHg 41%
    10:00 +26°C° 0 mm 2 mps 587 mmHg 35%
    11:00 +27°C° 0 mm 2 mps 587 mmHg 28%
    12:00 +28°C° 0 mm 2 mps 587 mmHg 26%
    13:00 +29°C° 0 mm 2 mps 587 mmHg 23%
    14:00 +30°C° 0 mm 2 mps 586 mmHg 20%
    15:00 +29°C° 0 mm 3 mps 586 mmHg 23%
    16:00 +29°C° 0 mm 3 mps 585 mmHg 27%
    17:00 +28°C° 0 mm 4 mps 585 mmHg 30%
    18:00 +27°C° 0.3 mm 4 mps 585 mmHg 35%
    19:00 +25°C° 0.3 mm 3 mps 585 mmHg 41%
    20:00 +24°C° 0.3 mm 3 mps 586 mmHg 46%
    21:00 +24°C° 0.2 mm 2 mps 586 mmHg 45%
    22:00 +24°C° 0.2 mm 2 mps 586 mmHg 44%
    23:00 +23°C° 0.2 mm 1 mps 586 mmHg 43%

    Day after tomorrow, 31 March, Tuesday

    Time Temperature Precipitation Wind Pressure Humidity
    00:00 +23°C° 0 mm 1 mps 585 mmHg 45%
    01:00 +22°C° 0 mm 1 mps 585 mmHg 47%
    02:00 +21°C° 0 mm 1 mps 584 mmHg 48%
    03:00 +21°C° 0 mm 1 mps 584 mmHg 50%
    04:00 +20°C° 0 mm 1 mps 584 mmHg 52%
    05:00 +20°C° 0 mm 1 mps 584 mmHg 53%
    06:00 +21°C° 0 mm 1 mps 584 mmHg 49%
    07:00 +22°C° 0 mm 1 mps 585 mmHg 45%
    08:00 +23°C° 0 mm 2 mps 586 mmHg 41%
    09:00 +25°C° 0 mm 2 mps 586 mmHg 36%
    10:00 +26°C° 0 mm 2 mps 586 mmHg 31%
    11:00 +27°C° 0 mm 3 mps 587 mmHg 26%
    12:00 +28°C° 0 mm 3 mps 586 mmHg 24%
    13:00 +29°C° 0 mm 2 mps 586 mmHg 22%
    14:00 +30°C° 0 mm 2 mps 585 mmHg 20%
    15:00 +29°C° 0 mm 3 mps 585 mmHg 24%
    16:00 +28°C° 0 mm 3 mps 585 mmHg 28%
    17:00 +27°C° 0 mm 4 mps 584 mmHg 32%
    18:00 +25°C° 0.9 mm 3 mps 584 mmHg 40%
    19:00 +24°C° 0.9 mm 3 mps 584 mmHg 48%
    20:00 +21°C° 0.9 mm 2 mps 584 mmHg 56%
    21:00 +21°C° 0.5 mm 2 mps 585 mmHg 55%
    22:00 +21°C° 0.5 mm 2 mps 585 mmHg 54%
    23:00 +22°C° 0.5 mm 1 mps 585 mmHg 54%

    1 April, Wednesday

    Time Temperature Precipitation Wind Pressure Humidity
    00:00 +21°C° 0 mm 1 mps 584 mmHg 55%
    01:00 +21°C° 0 mm 1 mps 584 mmHg 56%
    02:00 +20°C° 0 mm 1 mps 583 mmHg 58%
    03:00 +20°C° 0 mm 1 mps 583 mmHg 60%
    04:00 +19°C° 0 mm 1 mps 583 mmHg 61%
    05:00 +19°C° 0 mm 1 mps 583 mmHg 63%
    06:00 +20°C° 0 mm 1 mps 584 mmHg 59%
    07:00 +19°C° 0 mm 0 mps 585 mmHg 55%
    08:00 +20°C° 0 mm 0 mps 585 mmHg 51%
    09:00 +24°C° 0 mm 1 mps 586 mmHg 46%
    10:00 +25°C° 0 mm 1 mps 586 mmHg 40%
    11:00 +27°C° 0 mm 1 mps 586 mmHg 35%
    12:00 +27°C° 0.1 mm 1 mps 585 mmHg 34%
    13:00 +27°C° 0.1 mm 2 mps 585 mmHg 34%
    14:00 +27°C° 0.1 mm 2 mps 584 mmHg 33%
    15:00 +26°C° 0.4 mm 2 mps 584 mmHg 36%
    16:00 +25°C° 0.4 mm 2 mps 583 mmHg 40%
    17:00 +25°C° 0.4 mm 2 mps 583 mmHg 43%
    18:00 +24°C° 0.7 mm 2 mps 583 mmHg 46%
    19:00 +23°C° 0.7 mm 2 mps 584 mmHg 50%
    20:00 +22°C° 0.7 mm 1 mps 584 mmHg 53%
    21:00 +22°C° 0.2 mm 1 mps 584 mmHg 53%
    22:00 +22°C° 0.2 mm 1 mps 585 mmHg 54%
    23:00 +22°C° 0.2 mm 1 mps 585 mmHg 54%

    2 April, Thursday

    Time Temperature Precipitation Wind Pressure Humidity
    00:00 +21°C° 0.4 mm 1 mps 584 mmHg 55%
    01:00 +21°C° 0.4 mm 1 mps 584 mmHg 56%
    02:00 +21°C° 0.4 mm 1 mps 584 mmHg 56%
    03:00 +21°C° 0.1 mm 1 mps 584 mmHg 57%
    04:00 +20°C° 0.1 mm 1 mps 584 mmHg 57%
    05:00 +20°C° 0.1 mm 1 mps 584 mmHg 57%
    06:00 +21°C° 0 mm 1 mps 584 mmHg 53%
    07:00 +22°C° 0 mm 1 mps 585 mmHg 49%
    08:00 +23°C° 0 mm 1 mps 586 mmHg 45%
    09:00 +25°C° 0 mm 1 mps 586 mmHg 40%
    10:00 +27°C° 0 mm 1 mps 586 mmHg 35%
    11:00 +28°C° 0 mm 1 mps 586 mmHg 30%
    12:00 +28°C° 0.1 mm 1 mps 586 mmHg 29%
    13:00 +29°C° 0.1 mm 1 mps 585 mmHg 28%
    14:00 +29°C° 0.1 mm 2 mps 584 mmHg 27%
    15:00 +28°C° 0 mm 2 mps 584 mmHg 28%
    16:00 +28°C° 0 mm 3 mps 584 mmHg 30%
    17:00 +27°C° 0 mm 3 mps 584 mmHg 31%
    18:00 +25°C° 1.2 mm 3 mps 584 mmHg 40%
    19:00 +22°C° 1.2 mm 3 mps 583 mmHg 48%
    20:00 +20°C° 1.2 mm 3 mps 583 mmHg 57%
    21:00 +20°C° 0.4 mm 2 mps 583 mmHg 57%
    22:00 +20°C° 0.4 mm 1 mps 584 mmHg 58%
    23:00 +18°C° 0.4 mm 0 mps 584 mmHg 58%

    3 April, Friday

    Time Temperature Precipitation Wind Pressure Humidity
    00:00 +18°C° 0 mm 0 mps 584 mmHg 58%
    01:00 +18°C° 0 mm 0 mps 583 mmHg 58%
    02:00 +18°C° 0 mm 0 mps 583 mmHg 57%
    03:00 +18°C° 0 mm 0 mps 583 mmHg 57%
    04:00 +18°C° 0 mm 0 mps 583 mmHg 57%
    05:00 +17°C° 0 mm 0 mps 583 mmHg 56%
    06:00 +19°C° 0 mm 0 mps 584 mmHg 52%
    07:00 +20°C° 0 mm 0 mps 584 mmHg 47%
    08:00 +21°C° 0 mm 0 mps 585 mmHg 43%
    09:00 +23°C° 0 mm 0 mps 585 mmHg 38%
    10:00 +27°C° 0 mm 1 mps 586 mmHg 33%
    11:00 +28°C° 0 mm 1 mps 586 mmHg 29%
    12:00 +28°C° 0 mm 1 mps 585 mmHg 28%
    13:00 +29°C° 0 mm 2 mps 585 mmHg 27%
    14:00 +29°C° 0 mm 2 mps 584 mmHg 26%
    15:00 +28°C° 0.1 mm 3 mps 584 mmHg 29%
    16:00 +27°C° 0.1 mm 4 mps 583 mmHg 31%
    17:00 +26°C° 0.1 mm 4 mps 583 mmHg 34%
    18:00 +24°C° 0.2 mm 3 mps 583 mmHg 40%
    19:00 +23°C° 0.2 mm 2 mps 583 mmHg 47%
    20:00 +22°C° 0.2 mm 1 mps 583 mmHg 53%
    21:00 +22°C° 0.1 mm 1 mps 583 mmHg 52%
    22:00 +21°C° 0.1 mm 1 mps 584 mmHg 52%
    23:00 +21°C° 0.1 mm 1 mps 584 mmHg 51%
    Show more